FW7298 Weather Reports


time (UTC)temp
C
wind
direction
speed
KPH
gust
KPH
rain 1hr
cm
rain 24hr
cm
rain mn
cm
humidity
%
barometer
mb
20260504175519 23 25 3.2 4.8 0.00 0.00 0.00 36 1012.9
20260504175016 23 339 6.4 8.0 0.00 0.00 0.00 36 1012.9
20260504174514 23 311 1.6 3.2 0.00 0.00 0.00 36 1012.9
20260504174011 23 294 0.0 1.6 0.00 0.00 0.00 35 1013.1
20260504173507 23 278 1.6 1.6 0.00 0.00 0.00 36 1013.2
20260504173005 23 294 4.8 8.0 0.00 0.00 0.00 35 1013.4
20260504172501 23 95 0.0 1.6 0.00 0.00 0.00 34 1013.2
20260504171957 23 297 4.8 4.8 0.00 0.00 0.00 37 1013.5
20260504171454 22 86 0.0 0.0 0.00 0.00 0.00 37 1013.4
20260504170951 22 58 0.0 1.6 0.00 0.00 0.00 38 1013.5
20260504170447 22 62 1.6 3.2 0.00 0.00 0.00 36 1013.6
20260504160407 20 336 4.8 8.0 0.00 0.00 0.00 38 1014.3
20260504150831 19 158 0.0 0.0 0.00 0.00 0.00 42 1014.9
20260504150328 19 237 4.8 4.8 0.00 0.00 0.00 41 1015.2
20260504141258 17 64 0.0 0.0 0.00 0.00 0.00 50 1015.2
20260504140754 16 17 0.0 0.0 0.00 0.00 0.00 51 1015.1
20260504140250 16 54 0.0 0.0 0.00 0.00 0.00 51 1015.4
20260504130719 13 16 0.0 0.0 0.00 0.00 0.00 58 1015.8
20260504130214 12 49 0.0 0.0 0.00 0.00 0.00 57 1015.7
20260504120139 10 17 0.0 0.0 0.00 0.00 0.00 73 1016.1
20260504110606 8 4 0.0 1.6 0.00 0.00 0.00 77 1016.6
20260504100528 8 79 0.0 0.0 0.00 0.00 0.00 76 1016.3
20260504081916 9 42 0.0 0.0 0.00 0.00 0.00 70 1016.7
20260504081413 9 42 0.0 0.0 0.00 0.00 0.00 72 1016.6
20260504080908 9 39 0.0 0.0 0.00 0.00 0.00 71 1016.5
20260504080405 9 39 0.0 0.0 0.00 0.00 0.00 71 1016.5
20260504070333 9 38 0.0 0.0 0.00 0.00 0.00 76 1016.5
20260504050721 7 33 0.0 0.0 0.00 0.00 0.00 76 1016.8
20260504050218 7 33 0.0 0.0 0.00 0.00 0.00 76 1016.9
20260504045715 7 33 0.0 0.0 0.00 0.00 0.00 76 1016.7
20260504045215 7 33 0.0 0.0 0.00 0.00 0.00 75 1016.7
20260504044714 7 33 0.0 0.0 0.00 0.00 0.00 75 1016.7
20260504044211 7 33 0.0 0.0 0.00 0.00 0.00 75 1016.8
20260504043708 7 33 0.0 0.0 0.00 0.00 0.00 75 1016.7
20260504043204 7 33 0.0 0.0 0.00 0.00 0.00 75 1016.7
20260504042702 7 33 0.0 0.0 0.00 0.00 0.00 75 1016.8
20260504042158 7 33 0.0 0.0 0.00 0.00 0.00 75 1016.6
20260504041654 7 32 0.0 0.0 0.00 0.00 0.00 75 1016.5
20260504041150 7 33 0.0 0.0 0.00 0.00 0.00 75 1016.5
20260504040647 7 33 0.0 0.0 0.00 0.00 0.00 75 1016.5
20260504040144 7 33 0.0 0.0 0.00 0.00 0.00 75 1016.5
20260504035641 7 33 0.0 0.0 0.00 0.00 0.00 74 1016.6
20260504035138 7 33 0.0 0.0 0.00 0.00 0.00 74 1016.7
20260504034636 7 33 0.0 0.0 0.00 0.00 0.00 73 1016.9
20260504034132 7 33 0.0 0.0 0.00 0.00 0.00 73 1016.9
20260504033629 7 33 0.0 0.0 0.00 0.00 0.00 73 1017.0
20260504033127 7 35 0.0 0.0 0.00 0.00 0.00 74 1016.5
20260504032624 7 35 0.0 0.0 0.00 0.00 0.00 73 1016.5
20260504032121 7 34 0.0 0.0 0.00 0.00 0.00 72 1016.6
20260504031618 7 33 0.0 0.0 0.00 0.00 0.00 72 1016.4
20260504031114 7 35 0.0 0.0 0.00 0.00 0.00 72 1016.6
20260504030611 7 34 0.0 0.0 0.00 0.00 0.00 71 1016.4
20260504030108 7 21 0.0 0.0 0.00 0.00 0.00 71 1016.5
20260504025605 7 21 0.0 0.0 0.00 0.00 0.00 71 1016.5
20260504025101 7 44 0.0 0.0 0.00 0.00 0.00 71 1016.3
20260504024559 7 45 0.0 0.0 0.00 0.00 0.00 70 1016.6
20260504024055 7 46 0.0 0.0 0.00 0.00 0.00 71 1016.4
20260504023552 7 46 0.0 0.0 0.00 0.00 0.00 71 1016.3
20260504023048 7 47 0.0 0.0 0.00 0.00 0.00 70 1016.5
20260504022544 7 41 0.0 0.0 0.00 0.00 0.00 70 1016.4
20260504022040 7 33 0.0 0.0 0.00 0.00 0.00 70 1016.5
20260504021537 7 36 0.0 0.0 0.00 0.00 0.00 70 1016.1
20260504021029 7 75 0.0 0.0 0.00 0.00 0.00 70 1016.2
20260504020526 8 75 0.0 0.0 0.00 0.00 0.00 69 1016.3
20260504020022 8 76 0.0 0.0 0.00 0.00 0.00 69 1016.1
20260504015519 8 76 0.0 0.0 0.00 0.00 0.00 68 1016.2
20260504015015 8 77 0.0 1.6 0.00 0.00 0.00 68 1016.1
20260504014511 8 77 0.0 0.0 0.00 0.00 0.00 67 1016.4
20260504014008 8 78 0.0 0.0 0.00 0.00 0.00 67 1016.1
20260504013506 8 79 0.0 0.0 0.00 0.00 0.00 66 1016.1
20260504013003 9 79 0.0 0.0 0.00 0.00 0.00 65 1016.1
20260504012500 9 79 0.0 0.0 0.00 0.00 0.00 64 1015.8
20260504011958 9 76 0.0 0.0 0.00 0.00 0.00 63 1016.1
20260504011454 9 76 0.0 0.0 0.00 0.00 0.00 63 1015.9
20260504010950 10 75 0.0 0.0 0.00 0.00 0.00 63 1015.7
20260504010446 10 76 0.0 0.0 0.00 0.00 0.00 61 1015.6
20260504005942 10 76 0.0 0.0 0.00 0.00 0.00 59 1015.7
20260504005439 10 76 0.0 0.0 0.00 0.00 0.00 57 1015.6
20260504004937 10 76 0.0 0.0 0.00 0.00 0.00 57 1015.6
20260504004434 10 75 0.0 0.0 0.00 0.00 0.00 58 1015.4
20260504003931 11 76 0.0 0.0 0.00 0.00 0.00 55 1015.7
20260504003427 11 77 0.0 0.0 0.00 0.00 0.00 50 1015.6
20260504002924 11 77 0.0 0.0 0.00 0.00 0.00 51 1015.7
20260504002421 12 77 0.0 0.0 0.00 0.00 0.00 50 1015.5
20260504001919 12 77 0.0 0.0 0.00 0.00 0.00 50 1015.6
20260504001416 12 76 0.0 0.0 0.00 0.00 0.00 50 1015.6
20260504000912 12 76 0.0 0.0 0.00 0.00 0.00 48 1015.5
20260504000409 13 78 0.0 0.0 0.00 0.00 0.00 44 1015.3
20260503235907 13 78 0.0 0.0 0.00 0.00 0.00 44 1015.2
20260503235405 13 78 0.0 0.0 0.00 0.00 0.00 44 1015.4
20260503234902 14 77 0.0 0.0 0.00 0.00 0.00 41 1015.3
20260503234359 14 78 0.0 0.0 0.00 0.00 0.00 41 1015.3
20260503233857 15 78 0.0 0.0 0.00 0.00 0.00 40 1015.3
20260503233353 15 74 0.0 0.0 0.00 0.00 0.00 39 1015.2
20260503232849 15 46 0.0 0.0 0.00 0.00 0.00 37 1015.1
20260503232347 16 26 0.0 0.0 0.00 0.00 0.00 35 1015.3
20260503231845 16 325 0.0 0.0 0.00 0.00 0.00 33 1015.2
20260503231341 16 31 0.0 0.0 0.00 0.00 0.00 33 1015.3
20260503230837 16 320 0.0 1.6 0.00 0.00 0.00 32 1015.2
20260503230334 16 242 0.0 0.0 0.00 0.00 0.00 32 1015.2
20260503225833 17 9 0.0 0.0 0.00 0.00 0.00 30 1015.1
20260503225328 16 289 0.0 0.0 0.00 0.00 0.00 30 1015.1
20260503224824 16 291 1.6 3.2 0.00 0.00 0.00 30 1015.1
20260503224322 16 272 3.2 3.2 0.00 0.00 0.00 31 1014.9
20260503223820 16 41 0.0 0.0 0.00 0.00 0.00 31 1015.3
20260503223317 16 305 1.6 3.2 0.00 0.00 0.00 30 1015.3
20260503222813 17 265 1.6 1.6 0.00 0.00 0.00 30 1015.2
20260503222311 17 305 1.6 3.2 0.00 0.00 0.00 30 1015.1
20260503221809 17 218 0.0 1.6 0.00 0.00 0.00 30 1015.2
20260503221307 17 350 4.8 4.8 0.00 0.00 0.00 29 1015.3
20260503220803 17 349 0.0 1.6 0.00 0.00 0.00 29 1015.1
20260503220300 17 329 6.4 8.0 0.00 0.00 0.00 29 1015.1
20260503215757 17 327 14.5 17.7 0.00 0.00 0.00 28 1015.3
20260503215254 17 85 0.0 0.0 0.00 0.00 0.00 29 1015.4
20260503214752 17 354 4.8 4.8 0.00 0.00 0.00 29 1014.9
20260503214249 17 289 6.4 11.3 0.00 0.00 0.00 29 1015.4
20260503213746 17 226 4.8 8.0 0.00 0.00 0.00 28 1015.1
20260503213243 17 326 8.0 11.3 0.00 0.00 0.00 29 1015.4
20260503212740 17 320 4.8 4.8 0.00 0.00 0.00 31 1015.3
20260503212238 17 296 3.2 3.2 0.00 0.00 0.00 30 1015.2
20260503211735 17 270 3.2 4.8 0.00 0.00 0.00 31 1015.3
20260503211231 17 188 6.4 11.3 0.00 0.00 0.00 30 1015.2
20260503210727 17 315 1.6 1.6 0.00 0.00 0.00 30 1015.3
20260503210225 17 297 4.8 4.8 0.00 0.00 0.00 33 1015.3
20260503205720 17 255 1.6 3.2 0.00 0.00 0.00 31 1015.2
20260503205216 17 196 3.2 3.2 0.00 0.00 0.00 30 1015.5
20260503204713 17 272 3.2 4.8 0.00 0.00 0.00 32 1015.4
20260503204211 17 302 3.2 3.2 0.00 0.00 0.00 34 1015.5
20260503203708 16 162 1.6 1.6 0.00 0.00 0.00 30 1015.5
20260503203205 17 271 4.8 4.8 0.00 0.00 0.00 30 1015.5
20260503202702 17 334 6.4 8.0 0.00 0.00 0.00 32 1015.8
20260503202200 16 336 1.6 1.6 0.00 0.00 0.00 31 1015.9
20260503201658 16 22 3.2 3.2 0.00 0.00 0.00 32 1015.6
20260503201155 16 0 11.3 16.1 0.00 0.00 0.00 32 1015.8
20260503200651 16 253 4.8 4.8 0.00 0.00 0.00 32 1015.9
20260503200147 16 327 1.6 1.6 0.00 0.00 0.00 33 1015.9
20260503195644 16 282 4.8 4.8 0.00 0.00 0.00 33 1016.1
20260503195141 16 334 4.8 11.3 0.00 0.00 0.00 33 1016.2
20260503194638 17 243 3.2 4.8 0.00 0.00 0.00 31 1016.2
20260503194133 17 281 3.2 3.2 0.00 0.00 0.00 33 1016.4
20260503193631 16 338 1.6 3.2 0.00 0.00 0.00 34 1016.2
20260503193126 16 46 1.6 1.6 0.00 0.00 0.00 33 1016.2
20260503192622 16 330 4.8 8.0 0.00 0.00 0.00 35 1016.6
20260503192118 16 332 6.4 9.7 0.00 0.00 0.00 31 1016.4
20260503191615 16 337 3.2 3.2 0.00 0.00 0.00 34 1016.7
20260503191112 16 31 1.6 1.6 0.00 0.00 0.00 33 1016.8
20260503190609 16 290 8.0 11.3 0.00 0.00 0.00 32 1016.8
20260503190106 15 42 0.0 1.6 0.00 0.00 0.00 35 1016.9
20260503185603 15 26 0.0 1.6 0.00 0.00 0.00 35 1016.8
20260503185102 15 193 0.0 1.6 0.00 0.00 0.00 35 1016.9
20260503184558 15 335 4.8 4.8 0.00 0.00 0.00 36 1016.6
20260503184055 15 45 0.0 1.6 0.00 0.00 0.00 34 1017.1
20260503183551 15 64 0.0 1.6 0.00 0.00 0.00 35 1017.0
20260503183049 15 251 3.2 4.8 0.00 0.00 0.00 35 1017.2
20260503182547 15 332 6.4 8.0 0.00 0.00 0.00 37 1017.1
20260503182045 14 272 4.8 8.0 0.00 0.00 0.00 37 1017.3
20260503181541 15 331 1.6 3.2 0.00 0.00 0.00 36 1017.4
20260503181038 14 120 1.6 3.2 0.00 0.00 0.00 35 1017.2
20260503180535 13 26 1.6 1.6 0.00 0.00 0.00 37 1017.4
20260503180032 15 2 3.2 4.8 0.00 0.00 0.00 36 1017.1